Location: Sternwarte ZA, Rosenfeld-Brittheim
(48.2889°N, 8.6789°E)
Time: 16:38:25
(UTC+01:00)

ISS - Pass Details

Date: 23 January 2020
Orbit: 415 x 421 km, 51.6° (Epoch: 18 January)

Event Time Altitude Azimuth Distance (km) Brightness Sun altitude
Rises 19:10:12 0° 239° (WSW) 2,358 1.2 -19.8°
Reaches altitude 10° 19:12:17 10° 237° (WSW) 1,495 0.0 -20.2°
Enters shadow 19:15:21 65° 193° (SSW) 465 -3.6 -20.7°
